Regional Weather Roundup
Issued by NWS

Home | Current Version | Previous Version | Text Only | Print | Product List | Glossary Off
Versions: 1 2 3 4 5 6 7 8 9 10 11 12 13 14 15 16 17 18 19 20 21 22 23 24 25 26 27 28 29 30 31 32 33 34 35 36 37 38 39 40 41 42 43 44 45 46 47 48 49 50

000
ASUS43 KIND 230509
RWRIN

WEATHER ROUNDUP FOR INDIANA
NATIONAL WEATHER SERVICE INDIANAPOLIS IN
1200 AM EST MON JAN 23 2017

NOTE: "FAIR" INDICATES FEW OR NO CLOUDS BELOW 12,000 FEET WITH NO
SIGNIFICANT WEATHER AND/OR OBSTRUCTIONS TO VISIBILITY.

* - STATION DOES NOT REPORT WEATHER SUCH AS PRECIPITATION OR FOG.

+ - STATION NOT QUALITY CONTROLLED BY THE NATIONAL WEATHER SERVICE.
    USE DATA WITH CAUTION...ESPECIALLY DEWPOINT AND RELATIVE
    HUMIDITY OBSERVATIONS.

INZ001>003-010>013-019-020-230600-
NORTHWEST INDIANA

CITY           SKY/WX    TMP DP  RH WIND       PRES   REMARKS
GARY /AIRPORT/ LGT RAIN  40  40 100 N9        29.68S
KNOX *+        CLOUDY    41  36  81 N8        29.64S VSB 1/2
LA PORTE +     FOG       40  40 100 N6        29.65F VSB 1/4
MICHIGAN CITY+ FOG       37  37 100 N5        29.67S VSB 1/2
MONTICELLO +   CLOUDY    42  41  95 N10       29.61F FOG
RENSSELAER +   CLOUDY    41  41 100 N7        29.64S FOG
VALPARAISO     FOG       41  41 100 N6        29.66S VSB 1/4

$$

LMZ046-743>745-230600-
SOUTHERN LAKE MICHIGAN

STATION/POSITION TIME  TEMP    WIND        PRES    WAVE
                       AIR SEA DIR/SP/G            HT
                 (UTC) (F)     (DEG/KT/KT) (MB)    (FT)
BURNS HARBOR     0440   36     360/  8/  9 1005.4S
MICHIGAN CITY    0440   35      10/  5/  6   N/A

$$

INZ004-005-014>016-021>024-230600-
NORTH CENTRAL INDIANA

CITY           SKY/WX    TMP DP  RH WIND       PRES   REMARKS
GOSHEN         FOG       43  41  93 N7        29.62S VSB 1/2
LOGANSPORT +   CLOUDY    43  43 100 N10       29.60F FOG
PERU/GRISSOM   FOG       45  45 100 N13       29.56F VSB 3/4
ROCHESTER +    CLOUDY    45 N/A N/A N8        29.61F FOG
SOUTH BEND     CLOUDY    40  40 100 N9        29.64F FOG
WARSAW +       FOG       43  43 100 N6        29.61F VSB 1/2

$$

INZ006>009-017-018-025>027-230600-
NORTHEAST INDIANA

CITY           SKY/WX    TMP DP  RH WIND       PRES   REMARKS
ANGOLA *+      CLOUDY    46  30  53 NE3       29.60F VSB 3/4
AUBURN +       FOG       46  45  93 NE7       29.60F VSB 1
FORT WAYNE     CLOUDY    49  46  90 NE13      29.58F FOG
HUNTINGTON +   CLOUDY    47  46  97 NE6       29.57F FOG
KENDALLVILLE + CLOUDY    46  46 100 NE8       29.60F FOG

$$

INZ028-029-035-036-043>045-051>053-230600-
WEST CENTRAL INDIANA

CITY           SKY/WX    TMP DP  RH WIND       PRES   REMARKS
CRAWFORDSVL +  CLOUDY    43  43 100 N9        29.57S FOG
GREENCASTLE +  CLOUDY    46  46 100 N15       29.54S FOG
LAFAYETTE      CLOUDY    42  42 100 N8        29.60S FOG
TERRE HAUTE    CLOUDY    47  44  90 N12       29.56R

$$

INZ030>032-037>040-046>048-054>057-064-065-230600-
CENTRAL INDIANA

CITY           SKY/WX    TMP DP  RH WIND       PRES   REMARKS
CP ATTERBURY + CLEAR     52  48  87 N10       29.49F
FISHERS *+     CLOUDY    48  48 100 N5        29.53F
FRANKFORT +    FOG       47  46  97 N14       29.58F VSB 1/2
GREENWOOD *+   MOCLDY    52  50  93 N13       29.51F
INDIANAPOLIS   CLOUDY    50  47  89 N17       29.52S
-EAGLE CREEK   CLOUDY    50  47  89 N12       29.53S
KOKOMO +       CLOUDY    47  47 100 N14       29.57F FOG
MARION +       CLOUDY    48  46  93 NE14      29.56S FOG
MT COMFORT *+  CLOUDY    48  46  93 N13       29.52F
SHELBYVILLE    PTCLDY    53  48  83 N14       29.49S
ZIONSVILLE +   CLOUDY    48  46  95 N12       29.55S FOG

$$

INZ033-034-041-042-049-050-058-059-230600-
EAST CENTRAL INDIANA

CITY           SKY/WX    TMP DP  RH WIND       PRES   REMARKS
MUNCIE         CLOUDY    50  47  89 NE13      29.54F FOG

$$

INZ060-061-067>069-081>083-085>088-230600-
SOUTHWEST INDIANA

CITY           SKY/WX    TMP DP  RH WIND       PRES   REMARKS
EVANSVILLE     PTCLDY    52  47  83 N12G22    29.48R
HUNTINGBURG *+ PTCLDY    54  50  86 N16       29.45S
WASHINGTON +   PTCLDY    51  47  89 N15       29.49S

$$

INZ062-063-066-070>080-084-089>092-230600-
SOUTH CENTRAL AND SOUTHEAST INDIANA

CITY           SKY/WX    TMP DP  RH WIND       PRES   REMARKS
BLOOMINGTON    PTCLDY    51  47  86 N14       29.50R
MADISON *+     CLOUDY    55  46  71 N6        29.44S
NORTH VERNON + PTCLDY    55  54  94 N10       29.45S

$$




USA.gov is the U.S. government's official web portal to all federal, state and local government web resources and services.